When you browse on this site, cookies collect data to enhance your experience and personalize the content and advertising you see.
Visit our Privacy Policy to learn more. By continuing to use the site, you agree to this use of cookies and data.
  • In Switzerland
  • List of Countries
  • For 7 days
  • Water Temperature
  • Weather Map
  • Weather Widgets
  • user-avatar
    Login

    Hourly Weather Soledar

    Today, 25 February, Tuesday

    Time Temperature Precipitation Wind Pressure Humidity
    00:00 +1°C° 0.6 mm 5 mps 732 mmHg 97%
    01:00 -1°C° 1.2 mm 7 mps 733 mmHg 97%
    02:00 -1°C° 1.2 mm 9 mps 734 mmHg 96%
    03:00 -3°C° 1.2 mm 11 mps 735 mmHg 96%
    04:00 -3°C° 0.6 mm 11 mps 737 mmHg 93%
    05:00 -3°C° 0.6 mm 11 mps 738 mmHg 90%
    06:00 -3°C° 0.6 mm 10 mps 740 mmHg 87%
    07:00 -3°C° 0 mm 10 mps 741 mmHg 85%
    08:00 -3°C° 0 mm 9 mps 743 mmHg 84%
    09:00 -3°C° 0 mm 9 mps 744 mmHg 82%
    10:00 -1°C° 0 mm 9 mps 745 mmHg 77%
    11:00 -1°C° 0 mm 8 mps 746 mmHg 73%
    12:00 0°C° 0 mm 8 mps 747 mmHg 68%
    13:00 0°C° 0 mm 8 mps 747 mmHg 65%
    14:00 +2°C° 0 mm 7 mps 748 mmHg 63%
    15:00 +2°C° 0 mm 7 mps 748 mmHg 60%
    16:00 +2°C° 0 mm 5 mps 748 mmHg 64%
    17:00 +1°C° 0 mm 4 mps 749 mmHg 68%
    18:00 +1°C° 0 mm 3 mps 749 mmHg 72%
    19:00 +1°C° 0 mm 3 mps 749 mmHg 73%
    20:00 0°C° 0 mm 3 mps 749 mmHg 75%
    21:00 0°C° 0 mm 3 mps 750 mmHg 76%
    22:00 0°C° 0 mm 3 mps 750 mmHg 76%
    23:00 0°C° 0 mm 3 mps 749 mmHg 76%

    Tomorrow, 26 February, Wednesday

    Time Temperature Precipitation Wind Pressure Humidity
    00:00 0°C° 0 mm 3 mps 749 mmHg 76%
    01:00 -1°C° 0 mm 4 mps 749 mmHg 78%
    02:00 -1°C° 0 mm 4 mps 749 mmHg 81%
    03:00 -1°C° 0 mm 4 mps 749 mmHg 83%
    04:00 -1°C° 0 mm 4 mps 748 mmHg 84%
    05:00 -1°C° 0 mm 5 mps 748 mmHg 86%
    06:00 0°C° 0 mm 5 mps 747 mmHg 87%
    07:00 -1°C° 0 mm 6 mps 747 mmHg 85%
    08:00 +1°C° 0 mm 6 mps 747 mmHg 82%
    09:00 0°C° 0 mm 7 mps 747 mmHg 80%
    10:00 +3°C° 0 mm 7 mps 747 mmHg 74%
    11:00 +4°C° 0 mm 7 mps 746 mmHg 67%
    12:00 +5°C° 0 mm 8 mps 746 mmHg 61%
    13:00 +6°C° 0 mm 8 mps 746 mmHg 61%
    14:00 +6°C° 0 mm 8 mps 745 mmHg 60%
    15:00 +6°C° 0 mm 8 mps 745 mmHg 60%
    16:00 +6°C° 0 mm 8 mps 744 mmHg 62%
    17:00 +5°C° 0 mm 8 mps 744 mmHg 65%
    18:00 +4°C° 0 mm 7 mps 744 mmHg 67%
    19:00 +4°C° 0 mm 8 mps 744 mmHg 70%
    20:00 +2°C° 0 mm 8 mps 744 mmHg 72%
    21:00 +2°C° 0 mm 8 mps 744 mmHg 75%
    22:00 +2°C° 0 mm 8 mps 743 mmHg 75%
    23:00 +2°C° 0 mm 8 mps 743 mmHg 76%

    Day after tomorrow, 27 February, Thursday

    Time Temperature Precipitation Wind Pressure Humidity
    00:00 +3°C° 0 mm 7 mps 743 mmHg 76%
    01:00 +3°C° 0 mm 7 mps 743 mmHg 76%
    02:00 +3°C° 0 mm 7 mps 742 mmHg 76%
    03:00 +2°C° 0 mm 6 mps 742 mmHg 76%
    04:00 +3°C° 0 mm 6 mps 742 mmHg 77%
    05:00 +3°C° 0 mm 6 mps 741 mmHg 78%
    06:00 +3°C° 0 mm 6 mps 741 mmHg 79%
    07:00 +3°C° 0 mm 6 mps 741 mmHg 78%
    08:00 +4°C° 0 mm 6 mps 741 mmHg 78%
    09:00 +5°C° 0 mm 7 mps 741 mmHg 77%
    10:00 +6°C° 0 mm 7 mps 741 mmHg 75%
    11:00 +9°C° 0 mm 8 mps 740 mmHg 72%
    12:00 +10°C° 0 mm 9 mps 740 mmHg 69%
    13:00 +11°C° 0 mm 8 mps 740 mmHg 68%
    14:00 +11°C° 0 mm 8 mps 740 mmHg 67%
    15:00 +12°C° 0 mm 8 mps 740 mmHg 67%
    16:00 +11°C° 0 mm 7 mps 740 mmHg 71%
    17:00 +10°C° 0 mm 6 mps 739 mmHg 75%
    18:00 +10°C° 0 mm 5 mps 739 mmHg 80%
    19:00 +9°C° 0 mm 6 mps 740 mmHg 81%
    20:00 +9°C° 0 mm 6 mps 740 mmHg 81%
    21:00 +9°C° 0 mm 7 mps 740 mmHg 82%
    22:00 +9°C° 0.1 mm 7 mps 740 mmHg 83%
    23:00 +9°C° 0.1 mm 7 mps 739 mmHg 84%

    28 February, Friday

    Time Temperature Precipitation Wind Pressure Humidity
    00:00 +8°C° 0.1 mm 7 mps 739 mmHg 86%
    01:00 +8°C° 0.3 mm 7 mps 739 mmHg 83%
    02:00 +8°C° 0.3 mm 7 mps 739 mmHg 81%
    03:00 +6°C° 0.3 mm 7 mps 738 mmHg 79%
    04:00 +6°C° 0.3 mm 7 mps 738 mmHg 81%
    05:00 +6°C° 0.3 mm 7 mps 737 mmHg 83%
    06:00 +6°C° 0.3 mm 7 mps 736 mmHg 85%
    07:00 +6°C° 0.4 mm 7 mps 736 mmHg 84%
    08:00 +6°C° 0.4 mm 7 mps 736 mmHg 84%
    09:00 +6°C° 0.4 mm 7 mps 736 mmHg 83%
    10:00 +5°C° 0.1 mm 8 mps 737 mmHg 80%
    11:00 +4°C° 0.1 mm 8 mps 737 mmHg 77%
    12:00 +4°C° 0.1 mm 8 mps 737 mmHg 75%
    13:00 +2°C° 0.2 mm 8 mps 739 mmHg 76%
    14:00 +1°C° 0.2 mm 9 mps 740 mmHg 77%
    15:00 +1°C° 0.2 mm 10 mps 741 mmHg 78%
    16:00 +1°C° 0 mm 8 mps 742 mmHg 75%
    17:00 +2°C° 0 mm 7 mps 744 mmHg 71%
    18:00 +2°C° 0 mm 5 mps 745 mmHg 68%
    19:00 +1°C° 0 mm 4 mps 746 mmHg 70%
    20:00 +1°C° 0 mm 4 mps 747 mmHg 71%
    21:00 +2°C° 0 mm 3 mps 748 mmHg 73%
    22:00 +1°C° 0 mm 3 mps 748 mmHg 75%
    23:00 +1°C° 0 mm 3 mps 748 mmHg 77%

    29 February, Saturday

    Time Temperature Precipitation Wind Pressure Humidity
    00:00 +1°C° 0 mm 2 mps 748 mmHg 79%
    01:00 +1°C° 0 mm 2 mps 748 mmHg 79%
    02:00 +1°C° 0 mm 2 mps 747 mmHg 78%
    03:00 +1°C° 0 mm 2 mps 747 mmHg 78%
    04:00 0°C° 0 mm 3 mps 747 mmHg 77%
    05:00 0°C° 0 mm 3 mps 747 mmHg 76%
    06:00 0°C° 0 mm 3 mps 747 mmHg 75%
    07:00 0°C° 0 mm 4 mps 747 mmHg 77%
    08:00 0°C° 0 mm 4 mps 746 mmHg 78%
    09:00 +1°C° 0 mm 4 mps 746 mmHg 80%
    10:00 +1°C° 0.2 mm 4 mps 746 mmHg 81%
    11:00 +2°C° 0.2 mm 5 mps 745 mmHg 82%
    12:00 +2°C° 0.2 mm 5 mps 745 mmHg 83%
    13:00 +2°C° 0.7 mm 6 mps 744 mmHg 86%
    14:00 +1°C° 0.7 mm 6 mps 744 mmHg 90%
    15:00 +1°C° 0.7 mm 6 mps 743 mmHg 94%
    16:00 0°C° 0.6 mm 7 mps 743 mmHg 94%
    17:00 0°C° 0.6 mm 7 mps 743 mmHg 95%
    18:00 0°C° 0.6 mm 7 mps 742 mmHg 96%
    19:00 0°C° 0.4 mm 7 mps 742 mmHg 95%
    20:00 0°C° 0.4 mm 7 mps 742 mmHg 94%
    21:00 0°C° 0.4 mm 7 mps 742 mmHg 94%
    22:00 0°C° 0.2 mm 7 mps 742 mmHg 94%
    23:00 -1°C° 0.2 mm 7 mps 742 mmHg 94%

    1 March, Sunday

    Time Temperature Precipitation Wind Pressure Humidity
    00:00 -1°C° 0.2 mm 7 mps 742 mmHg 94%
    01:00 -1°C° 0.6 mm 8 mps 743 mmHg 94%
    02:00 -3°C° 0.6 mm 9 mps 743 mmHg 95%
    03:00 -3°C° 0.6 mm 10 mps 744 mmHg 95%
    04:00 -3°C° 0.2 mm 10 mps 744 mmHg 92%
    05:00 -3°C° 0.2 mm 10 mps 745 mmHg 89%
    06:00 -3°C° 0.2 mm 10 mps 746 mmHg 86%
    07:00 -3°C° 0 mm 9 mps 747 mmHg 84%
    08:00 -3°C° 0 mm 9 mps 747 mmHg 82%
    09:00 -3°C° 0 mm 9 mps 748 mmHg 80%
    10:00 -1°C° 0 mm 8 mps 749 mmHg 75%
    11:00 0°C° 0 mm 8 mps 749 mmHg 69%
    12:00 +1°C° 0 mm 8 mps 750 mmHg 64%
    13:00 +2°C° 0 mm 7 mps 750 mmHg 59%
    14:00 +3°C° 0 mm 7 mps 750 mmHg 54%
    15:00 +3°C° 0 mm 7 mps 751 mmHg 49%
    16:00 +3°C° 0 mm 5 mps 751 mmHg 55%
    17:00 +3°C° 0 mm 4 mps 751 mmHg 60%
    18:00 +4°C° 0 mm 2 mps 751 mmHg 65%
    19:00 +3°C° 0 mm 2 mps 751 mmHg 67%
    20:00 +3°C° 0 mm 2 mps 751 mmHg 68%
    21:00 +3°C° 0 mm 1 mps 751 mmHg 70%
    22:00 +2°C° 0 mm 2 mps 751 mmHg 72%
    23:00 +1°C° 0 mm 3 mps 751 mmHg 75%
    Show more